This is the latest recevied weather packets stored in our database for station/object E70ARA-3. If no packets are shown the sender has not sent any weather packets the latest 10 day(s).
| Time | Temp. | Humidity | Pressure | Rain* | Wind** | Luminosity | Snow |
|---|---|---|---|---|---|---|---|
| 1777410764 | 16.67° C | 49% | 1028.9 hPa | - | - | - | - |
| 1777409863 | 16.67° C | 47% | 1028.7 hPa | - | - | - | - |
| 1777408963 | 17.22° C | 46% | 1028.5 hPa | - | - | - | - |
| 1777408062 | 17.22° C | 45% | 1028.5 hPa | - | - | - | - |
| 1777407162 | 17.78° C | 43% | 1028.5 hPa | - | - | - | - |
| 1777406262 | 18.33° C | 42% | 1028.3 hPa | - | - | - | - |
| 1777405367 | 18.89° C | 39% | 1028.2 hPa | - | - | - | - |
| 1777404467 | 19.44° C | 36% | 1028.1 hPa | - | - | - | - |
| 1777403567 | 20° C | 35% | 1028.1 hPa | - | - | - | - |
| 1777402667 | 20° C | 36% | 1027.8 hPa | - | - | - | - |
| 1777401767 | 20.56° C | 35% | 1027.7 hPa | - | - | - | - |
| 1777400867 | 20° C | 33% | 1027.5 hPa | - | - | - | - |
| 1777399966 | 20.56° C | 33% | 1027.4 hPa | - | - | - | - |
| 1777399066 | 20.56° C | 34% | 1027.1 hPa | - | - | - | - |
| 1777398166 | 20.56° C | 33% | 1026.9 hPa | - | - | - | - |
| 1777397266 | 21.67° C | 34% | 1026.7 hPa | - | - | - | - |
| 1777396366 | 21.67° C | 31% | 1026.5 hPa | - | - | - | - |
| 1777395465 | 22.22° C | 30% | 1026.3 hPa | - | - | - | - |
| 1777394565 | 22.78° C | 31% | 1026 hPa | - | - | - | - |
| 1777393665 | 23.33° C | 29% | 1025.9 hPa | - | - | - | - |
| 1777392765 | 23.33° C | 29% | 1025.8 hPa | - | - | - | - |
| 1777391864 | 23.89° C | 29% | 1025.6 hPa | - | - | - | - |
| 1777390964 | 24.44° C | 28% | 1025.6 hPa | - | - | - | - |
| 1777390064 | 25° C | 27% | 1025.4 hPa | - | - | - | - |
| 1777389164 | 25.56° C | 27% | 1025.2 hPa | - | - | - | - |
* Rain since midnight (hover to see other rain measurements)
** Current wind speed in m/s (hover to see current wind gust speed)